Location: Eboldshausen
(51.7766°N, 10.0050°E)
Time: 18:28:38
(UTC+00:00)

ARIANE 6 FM1 Upper Stage - Pass Details

Date: 15 November 2025
Orbit: 522 x 611 km, 62.0° (Epoch: 10 December)

Event Time Altitude Azimuth Distance (km) Brightness Sun altitude
Rises 16:11:46 0° 250° (WSW) 2,670 8.9 -6.7°
Reaches altitude 10° 16:14:04 10° 258° (WSW) 1,774 6.9 -7.1°
Maximum altitude 16:17:50 40° 329° (NNW) 788 3.5 -7.6°
Drops below altitude 10° 16:21:35 10° 40° (NE) 1,769 4.7 -8.2°
Enters shadow 16:22:00 - 42° (NE) 1,929 4.9 -8.2°
